FW1542 Weather Reports


time (UTC)temp
F
wind
direction
speed
knots
gust
knots
rain 1hr
in
rain 24hr
in
rain mn
in
humidity
%
barometer
mb
20220627210105 91 15 7.8 20.0 0.00 0.00 0.00 53 1016.3
20220627204507 91 49 9.6 23.5 0.00 0.00 0.00 52 1016.4
20220627203103 92 28 10.4 22.6 0.00 0.00 0.00 48 1017.0
20220627201503 100 24 1.7 13.0 0.00 0.00 0.00 34 1016.2
20220627200105 100 169 3.5 11.3 0.00 0.00 0.00 33 1016.2
20220627194604 101 119 2.6 8.7 0.00 0.00 0.00 34 1016.3
20220627193105 101 148 5.2 13.9 0.00 0.00 0.00 33 1016.5
20220627191503 101 184 1.7 12.2 0.00 0.00 0.00 33 1016.8
20220627190114 102 80 3.5 7.0 0.00 0.00 0.00 34 1017.1
20220627184503 100 82 2.6 7.8 0.00 0.00 0.00 35 1017.4
20220627183103 100 127 6.1 10.4 0.00 0.00 0.00 33 1017.7
20220627181603 100 113 5.2 11.3 0.00 0.00 0.00 34 1017.9
20220627180004 99 70 3.5 11.3 0.00 0.00 0.00 33 1018.3
20220627174503 99 141 5.2 10.4 0.00 0.00 0.00 34 1018.4
20220627173003 99 60 1.7 8.7 0.00 0.00 0.00 37 1018.6
20220627171605 98 32 1.7 5.2 0.00 0.00 0.00 36 1018.9
20220627170004 98 69 4.3 7.8 0.00 0.00 0.00 35 1018.8
20220627164603 97 22 3.5 8.7 0.00 0.00 0.00 36 1019.0
20220627163003 97 65 2.6 7.8 0.00 0.00 0.00 35 1019.0
20220627161511 96 74 4.3 8.7 0.00 0.00 0.00 37 1019.2
20220627160004 94 36 3.5 7.0 0.00 0.00 0.00 42 1019.2
20220627154607 94 31 0.9 5.2 0.00 0.00 0.00 44 1019.2
20220627153003 92 336 0.9 6.1 0.00 0.00 0.00 48 1019.2
20220627151606 93 83 2.6 7.0 0.00 0.00 0.00 48 1019.5
20220627150013 92 344 0.0 7.0 0.00 0.00 0.00 50 1019.6
20220627144503 91 360 0.0 7.8 0.00 0.00 0.00 52 1019.8
20220627143004 91 341 0.0 3.5 0.00 0.00 0.00 53 1020.0
20220627141604 90 131 0.0 2.6 0.00 0.00 0.00 55 1020.0
20220627140002 88 351 0.0 2.6 0.00 0.00 0.00 58 1019.8
20220627134604 86 355 0.9 4.3 0.00 0.00 0.00 60 1019.7
20220627133014 84 11 1.7 3.5 0.00 0.00 0.00 65 1019.7
20220627131604 82 5 1.7 4.3 0.00 0.00 0.00 68 1019.7
20220627130008 79 13 3.5 8.7 0.00 0.00 0.00 73 1019.8
20220627124605 76 32 1.7 3.5 0.00 0.00 0.00 78 1019.6
20220627123027 75 205 0.0 0.0 0.00 0.00 0.00 80 1019.0
20220627000104 97 86 4.3 9.6 0.00 0.00 0.00 33 1014.6
20220626234506 97 116 6.1 13.0 0.00 0.00 0.00 33 1014.6
20220626233102 98 124 5.2 13.0 0.00 0.00 0.00 33 1014.5
20220626231506 98 105 3.5 9.6 0.00 0.00 0.00 33 1014.6
20220626230104 98 36 3.5 10.4 0.00 0.00 0.00 33 1014.7
20220626224502 98 87 4.3 12.2 0.00 0.00 0.00 33 1014.8
20220626223108 96 125 5.2 8.7 0.00 0.00 0.00 35 1015.1
20220626221503 99 111 4.3 10.4 0.00 0.00 0.00 33 1015.2
20220626220102 99 55 2.6 9.6 0.00 0.00 0.00 35 1015.4
20220626214503 98 99 0.0 7.8 0.00 0.00 0.00 35 1015.4
20220626213105 98 122 6.1 13.0 0.00 0.00 0.00 34 1015.6
20220626211603 99 115 2.6 12.2 0.00 0.00 0.00 34 1015.8